This is the latest recevied weather packets stored in our database for station/object IU2RPR-3. If no packets are shown the sender has not sent any weather packets the latest 10 day(s).
| Time | Temp. | Humidity | Pressure | Rain* | Wind** | Luminosity | Snow |
|---|---|---|---|---|---|---|---|
| 1787881979 | 23.33° C | 73% | 1016.1 hPa | - | - | - | - |
| 1787880776 | 23.33° C | 74% | 1015.9 hPa | - | - | - | - |
| 1787879574 | 23.33° C | 71% | 1015.9 hPa | - | - | - | - |
| 1787878370 | 23.33° C | 71% | 1016 hPa | - | - | - | - |
| 1787877167 | 23.89° C | 71% | 1016 hPa | - | - | - | - |
| 1787875964 | 23.89° C | 70% | 1016.1 hPa | - | - | - | - |
| 1787874762 | 23.89° C | 70% | 1016.7 hPa | - | - | - | - |
| 1787873560 | 23.89° C | 69% | 1017 hPa | - | - | - | - |
| 1787872358 | 23.89° C | 69% | 1017 hPa | - | - | - | - |
| 1787871157 | 23.89° C | 69% | 1017 hPa | - | - | - | - |
| 1787869956 | 23.89° C | 70% | 1017.4 hPa | - | - | - | - |
| 1787869069 | 24.44° C | 69% | 1017.1 hPa | - | - | - | - |
| 1787867867 | 25° C | 65% | 1017.1 hPa | - | - | - | - |
| 1787866666 | 25° C | 66% | 1016.8 hPa | - | - | - | - |
| 1787865464 | 25° C | 64% | 1016.6 hPa | - | - | - | - |
| 1787864262 | 25° C | 64% | 1016.3 hPa | - | - | - | - |
| 1787863061 | 25.56° C | 62% | 1016.3 hPa | - | - | - | - |
| 1787861859 | 25.56° C | 61% | 1016.3 hPa | - | - | - | - |
| 1787860657 | 26.11° C | 60% | 1016.2 hPa | - | - | - | - |
| 1787859456 | 26.11° C | 61% | 1016.1 hPa | - | - | - | - |
| 1787858254 | 26.67° C | 62% | 1015.9 hPa | - | - | - | - |
| 1787857053 | 27.22° C | 58% | 1015.7 hPa | - | - | - | - |
| 1787855848 | 27.22° C | 59% | 1015.7 hPa | - | - | - | - |
| 1787854643 | 27.22° C | 57% | 1015.4 hPa | - | - | - | - |
| 1787853439 | 28.33° C | 56% | 1015.4 hPa | - | - | - | - |
* Rain since midnight (hover to see other rain measurements)
** Current wind speed in m/s (hover to see current wind gust speed)